[ ตารางข้อมูล ] [ Min-Max ] [ วันนี้4 ] [ วันนี้2 ] [ เทียบ3วัน A ] [ เทียบ4วัน B ]   

วันนี้2   [ ◀ ช่วงเก่ากว่า ] [ ช่วงที่ 224 ] [ ช่วงใหม่กว่า ▶ ] [ ล่าสุด ]    [ 3 ชั่วโมง ] [ 6 ชั่วโมง ] [ 12 ชั่วโมง ] [ 24 ชั่วโมง ]   วันนี้2

อุณภูมิตู้ Knockdown4529  ราย 3 ชั่วโมง  ที่วัดได้ ในช่วงวันเวลา 08/04/2026 (02:59) ถึง 08/04/2026 (05:59) 
ความชื้นในตู้ Knockdown4529  ราย 3 ชั่วโมง  ที่วัดได้ ในช่วงวันเวลา 08/04/2026 (02:59) ถึง 08/04/2026 (05:59) 

 
DS18B20SHTC3 
IDDate d/m/Y & Timedata1
สูง
data2
ต่ำ
data3
นอก
temp
pcb
hum
pcb
Time
 9858  08/04/2026 05:55:44  29.0  29.1  27.3  29.0  70.9  05:55 
 9857  08/04/2026 05:51:00  29.0  29.1  27.1  29.1  70.8  05:51 
 9856  08/04/2026 05:46:18  29.0  29.1  27.3  28.9  70.7  05:46 
 9855  08/04/2026 05:41:36  29.1  29.1  27.2  29.1  70.7  05:41 
 9854  08/04/2026 05:36:54  29.1  29.1  27.2  29.0  70.7  05:36 
 9853  08/04/2026 05:32:13  29.1  29.2  27.3  28.9  70.7  05:32 
 9852  08/04/2026 05:27:31  29.1  29.2  27.3  29.0  70.7  05:27 
 9851  08/04/2026 05:22:49  29.1  29.2  27.2  28.9  70.8  05:22 
 9850  08/04/2026 05:18:07  29.1  29.2  27.2  29.2  70.7  05:18 
 9849  08/04/2026 05:13:25  29.1  29.2  27.0  29.0  70.7  05:13 
 9848  08/04/2026 05:08:43  29.2  29.2  27.0  29.3  70.7  05:08 
 9847  08/04/2026 05:04:00  29.2  29.3  27.4  29.1  70.5  05:04 
 9846  08/04/2026 04:59:19  29.2  29.3  27.5  29.2  70.6  04:59 
 9845  08/04/2026 04:54:37  29.2  29.3  27.5  29.2  70.7  04:54 
 9844  08/04/2026 04:49:55  29.2  29.4  27.3  29.2  70.6  04:49 
 9843  08/04/2026 04:45:13  29.3  29.4  27.4  29.2  70.6  04:45 
 9842  08/04/2026 04:40:31  29.3  29.4  27.4  29.4  70.7  04:40 
 9841  08/04/2026 04:35:49  29.3  29.4  27.4  29.1  70.5  04:35 
 9840  08/04/2026 04:31:07  29.4  29.4  27.2  29.2  70.4  04:31 
 9839  08/04/2026 04:26:25  29.4  29.4  27.3  29.4  70.6  04:26 
 9838  08/04/2026 04:21:44  29.4  29.5  27.3  29.4  70.5  04:21 
 9837  08/04/2026 04:17:02  29.4  29.5  27.4  29.4  70.5  04:17 
 9836  08/04/2026 04:12:20  29.4  29.5  27.5  29.4  70.5  04:12 
 9835  08/04/2026 04:07:39  29.4  29.6  27.6  29.5  70.4  04:07 

Data every 5 minute.


ใช้เวลาประมวลผล 0.00766 วินาที